Location: *
(33.6842°N, 117.7925°W)
Time: 04:49:07
(UTC+00:00)

Cosmos 2327 Rocket - Pass Details

Date: 21 October 2019
Orbit: 943 x 1009 km, 83.0° (Epoch: 16 November)

Event Time Altitude Azimuth Distance (km) Brightness Sun altitude
Rises 12:00:56 0° 186° (S) 3,680 7.4 -25.6°
Reaches altitude 10° 12:03:27 10° 187° (S) 2,726 6.7 -25.1°
Maximum altitude 12:09:43 84° 275° (W) 979 4.3 -23.8°
Drops below altitude 10° 12:15:54 10° 5° (N) 2,696 6.9 -22.5°
Sets 12:18:23 0° 6° (N) 3,637 7.6 -22.0°
